Change the Weather History Date:

Monday, November 4, 2013

  Actual Average (KMCE) Record (KMCE)
Temperature  
Mean Temperature 52 °F 57 °F  
Max Temperature 68 °F 70 °F 82 °F (2010)
Min Temperature 37 °F 44 °F 30 °F (2003)
Degree Days  
Heating Degree Days 12    
Month to date heating degree days  
Since 1 July heating degree days  
Cooling Degree Days 0    
Month to date cooling degree days  
Year to date cooling degree days  
Growing Degree Days 2 (Base 50)    
Moisture  
Dew Point 30 °F    
Average Humidity 49    
Maximum Humidity 81    
Minimum Humidity 21    
Precipitation  
Precipitation 0.00 in 0.04 in 0.03 in (2011)
Month to date precipitation 0.19  
Year to date precipitation 9.99  
Since 1 July precipitation 1.31  
Snow  
Snow 0.00 in - - ()
Month to date snowfall  
Since 1 July snowfall  
Since 1 September snowfall  
Snow Depth -    
Sea Level Pressure  
Sea Level Pressure 29.94 in    
Wind  
Wind Speed 8 mph (NNW)    
Max Wind Speed 16 mph    
Max Gust Speed 18 mph    
Visibility 10 miles    
Events      
T = Trace of Precipitation, MM = Missing Value Source: NWS Daily Summary

Daily Weather History Graph

Daily Weather History Graph

Search for Another Location

Airport or City:

Trip Planner

Search our weather history database for the weather conditions in past years. The results will help you decide how hot, cold, wet, or windy it might be!

Date:

Astronomy

Nov. 04, 2013 Rise Set
Actual Time 6:30 AM PST 5:00 PM PST
Civil Twilight 6:03 AM PST 5:27 PM PST
Nautical Twilight 5:32 AM PST 5:58 PM PST
Astronomical Twilight 5:01 AM PST 6:29 PM PST
Moon 7:45 AM PST 6:11 PM PST
Length of Visible Light 11h 24m
Length of Day
10h 30m
New Moon, 2% of the Moon is Illuminated
Nov 4
New Moon
Nov 9
First Quarter
Nov 17
Full
Nov 25
Last Quarter
Dec 2
New

Hourly Weather History & Observations

Time (PST) Temp. Windchill Dew Point Humidity Pressure Visibility Wind Dir Wind Speed Gust Speed Precip Events Conditions
12:15 AM 51.8 °F - 30.2 °F 44% 29.90 in 10.0 mi North - - N/A   Clear
12:35 AM 50.0 °F - 30.2 °F 47% 29.90 in 10.0 mi North - - N/A   Clear
12:55 AM 50.0 °F - 30.2 °F 47% 29.89 in 10.0 mi North - - N/A   Clear
1:15 AM 50.0 °F - 30.2 °F 47% 29.89 in 10.0 mi North 3.5 mph - N/A   Clear
1:35 AM 50.0 °F - 30.2 °F 47% 29.90 in 10.0 mi North - - N/A   Clear
1:55 AM 51.8 °F - 30.2 °F 44% 29.90 in 10.0 mi North 5.8 mph - N/A   Clear
2:15 AM 48.2 °F - 30.2 °F 50% 29.90 in 10.0 mi North - - N/A   Clear
2:35 AM 48.2 °F - 30.2 °F 50% 29.89 in 10.0 mi North - - N/A   Clear
2:55 AM 48.2 °F - 32.0 °F 54% 29.88 in 10.0 mi North - - N/A   Clear
3:15 AM 46.4 °F - 32.0 °F 57% 29.88 in 10.0 mi North - - N/A   Clear
3:35 AM 46.4 °F - 30.2 °F 53% 29.88 in 10.0 mi North - - N/A   Clear
3:55 AM 46.4 °F - 30.2 °F 53% 29.89 in 10.0 mi North - - N/A   Clear
4:15 AM 46.4 °F - 30.2 °F 53% 29.89 in 10.0 mi North - - N/A   Clear
4:35 AM 44.6 °F - 30.2 °F 57% 29.89 in 10.0 mi North - - N/A   Clear
4:55 AM 44.6 °F 40.7 °F 30.2 °F 57% 29.90 in 10.0 mi North 6.9 mph - N/A   Clear
5:15 AM 42.8 °F - 30.2 °F 61% 29.90 in 10.0 mi North - - N/A   Clear
5:35 AM 39.2 °F - 30.2 °F 70% 29.90 in 10.0 mi North - - N/A   Clear
5:55 AM 41.0 °F 37.1 °F 32.0 °F 70% 29.91 in 10.0 mi NNE 5.8 mph - N/A   Clear
6:45 AM 37.4 °F 34.9 °F 32.0 °F 81% 29.93 in 10.0 mi Variable 3.5 mph - N/A   Clear
7:45 AM 46.4 °F 41.1 °F 32.0 °F 57% 29.96 in 10.0 mi North 11.5 mph - N/A   Clear
8:45 AM 51.8 °F - 32.0 °F 47% 29.97 in 10.0 mi NNW 15.0 mph - N/A   Clear
9:55 AM 57.2 °F - 30.2 °F 36% 29.98 in 10.0 mi NNW 13.8 mph - N/A   Clear
10:45 AM 60.8 °F - 30.2 °F 31% 29.98 in 10.0 mi NNW 16.1 mph - N/A   Clear
11:45 AM 64.4 °F - 30.2 °F 28% 29.95 in 10.0 mi NNW 12.7 mph 18.4 mph N/A   Clear
12:45 PM 66.2 °F - 30.2 °F 26% 29.93 in 10.0 mi NW 13.8 mph - N/A   Clear
1:45 PM 66.2 °F - 30.2 °F 26% 29.93 in 10.0 mi North 15.0 mph - N/A   Clear
2:50 PM 68.0 °F - 28.4 °F 23% 29.93 in 10.0 mi North 13.8 mph - N/A   Clear
3:45 PM 68.0 °F - 26.6 °F 21% 29.92 in 10.0 mi NNW 12.7 mph - N/A   Clear
4:45 PM 64.4 °F - 28.4 °F 26% 29.94 in 10.0 mi NNW 9.2 mph - N/A   Clear
5:45 PM 60.8 °F - 28.4 °F 29% 29.95 in 10.0 mi WNW 9.2 mph - N/A   Clear
6:45 PM 55.4 °F - 28.4 °F 36% 29.97 in 10.0 mi WNW 9.2 mph - N/A   Clear
7:45 PM 55.4 °F - 30.2 °F 38% 29.96 in 10.0 mi WNW 13.8 mph - N/A   Clear
8:15 PM 53.6 °F - 30.2 °F 41% 29.97 in 10.0 mi NW 11.5 mph - N/A   Clear
8:35 PM 53.6 °F - 30.2 °F 41% 29.97 in 10.0 mi NW 10.4 mph - N/A   Clear
8:45 PM 53.6 °F - 30.2 °F 41% 29.98 in 10.0 mi WNW 9.2 mph - N/A   Clear
8:55 PM 53.6 °F - 30.2 °F 41% 29.98 in 10.0 mi NW 6.9 mph - N/A   Clear
9:15 PM 51.8 °F - 30.2 °F 44% 29.99 in 10.0 mi NNW 3.5 mph - N/A   Clear
9:35 PM 46.4 °F 42.9 °F 30.2 °F 53% 30.01 in 10.0 mi ESE 6.9 mph - N/A   Clear
9:55 PM 44.6 °F 41.4 °F 32.0 °F 61% 30.01 in 10.0 mi East 5.8 mph - N/A   Clear
10:15 PM 42.8 °F 41.1 °F 32.0 °F 66% 30.02 in 10.0 mi SE 3.5 mph - N/A   Clear
10:35 PM 42.8 °F 41.1 °F 32.0 °F 66% 30.02 in 10.0 mi SE 3.5 mph - N/A   Clear
10:55 PM 42.8 °F - 32.0 °F 66% 30.02 in 10.0 mi Calm Calm - N/A   Clear
11:15 PM 39.2 °F - 30.2 °F 70% 30.02 in 10.0 mi Calm Calm - N/A   Clear
11:35 PM 42.8 °F - 32.0 °F 66% 30.03 in 10.0 mi Calm Calm - N/A   Clear
11:55 PM 41.0 °F - 32.0 °F 70% 30.04 in 10.0 mi Calm Calm - N/A   Clear